Starlink 2143

operational
NORAD ID: 47733 Int'l Des: 2021-017 Owner: SPXS Country: US Constellation: starlink
LEOCIRCULARSTARLINK_TYPE

Über Starlink 2143

Beschreibung wird geladen...

Live-Position

3D-Globus wird geladen...

Nächste Überflüge

Höhenverlauf

Altitude vs Time

uPlot chart will show altitude changes over time

Zweizeiliger Elementsatz

1 47733U 21017M 25351.12010577 .00002405 00000-0 18026-3 0 9995
2 47733 53.0533 232.2849 0001535 85.8873 274.2291 15.06404790265194
Epoch: 17. Dez. 2025 • Age: 14 hours

Aktueller Status

Höhe 548.1 km
Geschwindigkeit 7.59 km/s
Subsatellitenpunkt -0.78°S, 115.7°W
Startdatum 4. März 2021
Alter 4.7 years
Typ internet

Technische Details

Klassifizierung Payload
Masse 260.00 kg
Trockenmasse 248.00 kg
Gesamtmasse 260.00 kg
Länge 0.20 m
Durchmesser 2.80 m
Spannweite 9.00 m
Form Box + pan
Hersteller SPXS
Bus-Typ Starlink
Phasenstatus In Orbit
Besitzer/Staat SPXS/US

Große Konstellationen

Loading constellations...